Latrobe, PA

4:43 PM EST on December 05, 2019 (GMT -0500)
Arnold Palmer Regional

Weather History for KLBE - May, 2019

Change the Weather History Date:

Friday, May 17, 2019

  Actual Average Record
Temperature  
Mean Temperature 64 °F -  
Max Temperature 71 °F 70 °F 87 °F (1999)
Min Temperature 57 °F 48 °F 39 °F (2012)
Degree Days  
Heating Degree Days 1    
Growing Degree Days 14 (Base 50)    
Moisture  
Dew Point 58 °F    
Average Humidity 83    
Maximum Humidity 100    
Minimum Humidity 68    
Precipitation  
Precipitation 0.00 in - - ()
Sea Level Pressure  
Sea Level Pressure 29.85 in    
Wind  
Wind Speed 7 mph (SSW)    
Max Wind Speed 22 mph    
Max Gust Speed 29 mph    
Visibility 10 miles    
Events      
Averages and records for this station are not official NWS values.
T = Trace of Precipitation, MM = Missing Value Source: NWS Daily Summary

Daily Weather History Graph

Daily Weather History Graph

Search for Another Location

Airport or City:

Astronomy

May. 17, 2019 Rise Set
Actual Time 6:00 AM EDT 8:28 PM EDT
Civil Twilight 5:29 AM EDT 8:59 PM EDT
Nautical Twilight 4:50 AM EDT 9:38 PM EDT
Astronomical Twilight 4:07 AM EDT 10:21 PM EDT
Moon 7:14 PM EDT (5/17) 5:30 AM EDT (5/17)
Length of Visible Light 15h 30m
Length of Day
14h 28m
Waxing Gibbous, 98% of the Moon is Illuminated
May 17
Waxing Gibbous
May 18
Full
May 26
Last Quarter
Jun 3
New
Jun 10
First Quarter

Hourly Weather History & Observations

Time (EDT) Temp. Dew Point Humidity Pressure Visibility Wind Dir Wind Speed Gust Speed Precip Events Conditions
12:15 AM 59.0 °F 51.8 °F 77% 29.86 in 10.0 mi South 6.9 mph - N/A   Scattered Clouds
12:35 AM 60.8 °F 51.8 °F 72% 29.85 in 10.0 mi SSW 3.5 mph - N/A   Mostly Cloudy
12:55 AM 60.8 °F 51.8 °F 72% 29.85 in 10.0 mi SSW 4.6 mph - N/A   Overcast
1:15 AM 59.0 °F 51.8 °F 77% 29.84 in 10.0 mi SSW 5.8 mph - N/A   Overcast
1:35 AM 59.0 °F 51.8 °F 77% 29.83 in 10.0 mi SSW 5.8 mph - N/A   Scattered Clouds
1:55 AM 57.2 °F 50.0 °F 77% 29.83 in 10.0 mi SSW 5.8 mph - N/A   Clear
2:15 AM 57.2 °F 50.0 °F 77% 29.83 in 10.0 mi SSW 6.9 mph - N/A   Clear
2:35 AM 57.2 °F 50.0 °F 77% 29.82 in 10.0 mi SSW 3.5 mph - N/A   Clear
2:55 AM 57.2 °F 50.0 °F 77% 29.81 in 10.0 mi SSW 5.8 mph - N/A   Clear
3:15 AM 57.2 °F 50.0 °F 77% 29.80 in 10.0 mi SSW 4.6 mph - N/A   Clear
3:35 AM 57.2 °F 50.0 °F 77% 29.78 in 10.0 mi SSW 5.8 mph - N/A   Clear
3:55 AM 57.2 °F 50.0 °F 77% 29.78 in 10.0 mi SSW 4.6 mph - N/A   Clear
4:15 AM 59.0 °F 51.8 °F 77% 29.78 in 10.0 mi SSW 5.8 mph - N/A   Clear
4:35 AM 60.8 °F 51.8 °F 72% 29.79 in 10.0 mi SSW 5.8 mph - N/A   Clear
4:55 AM 60.8 °F 51.8 °F 72% 29.79 in 10.0 mi SSW 4.6 mph - N/A   Partly Cloudy
5:15 AM 60.8 °F 53.6 °F 77% 29.80 in 10.0 mi SSW 6.9 mph - N/A   Scattered Clouds
5:35 AM 60.8 °F 53.6 °F 77% 29.80 in 10.0 mi SSW 9.2 mph - N/A   Scattered Clouds
5:55 AM 62.6 °F 51.8 °F 68% 29.81 in 10.0 mi SSW 13.8 mph - N/A   Scattered Clouds
6:51 AM 60.8 °F 55.4 °F 82% 29.83 in 10.0 mi SSW 11.5 mph - N/A   Scattered Clouds
7:51 AM 62.6 °F 55.4 °F 77% 29.84 in 10.0 mi SSW 16.1 mph 25.3 mph N/A   Mostly Cloudy
8:51 AM 62.6 °F 59.0 °F 88% 29.86 in 10.0 mi SSW 21.9 mph 28.8 mph N/A   Mostly Cloudy
9:51 AM 64.4 °F 59.0 °F 83% 29.85 in 10.0 mi SSW 9.2 mph - N/A   Mostly Cloudy
10:51 AM 66.2 °F 60.8 °F 83% 29.84 in 10.0 mi SW 16.1 mph - N/A   Overcast
11:47 AM 66.2 °F 60.8 °F 83% 29.84 in 15.0 mi SW 11.5 mph - N/A   Mostly Cloudy
12:47 PM 66.2 °F 62.6 °F 88% 29.86 in 10.0 mi SW 11.5 mph - N/A   Overcast
1:47 PM 66.2 °F 62.6 °F 88% 29.85 in 15.0 mi SSW 11.5 mph - N/A   Overcast
2:47 PM 68.0 °F 64.4 °F 88% 29.86 in 15.0 mi WSW 9.2 mph - N/A   Overcast
3:50 PM 69.8 °F 62.6 °F 78% 29.88 in 8.0 mi West 16.1 mph - N/A   Overcast
4:50 PM 69.8 °F 64.4 °F 83% 29.86 in 8.0 mi WSW 13.8 mph - N/A   Mostly Cloudy
5:50 PM 71.6 °F 64.4 °F 78% 29.86 in 8.0 mi SW 16.1 mph - N/A   Mostly Cloudy
6:50 PM 69.8 °F 64.4 °F 83% 29.87 in 8.0 mi SW 11.5 mph - N/A   Mostly Cloudy
7:50 PM 68.0 °F 68.0 °F 100% 29.88 in 8.0 mi SSW 5.8 mph - N/A   Mostly Cloudy
8:50 PM 66.2 °F 66.2 °F 100% 29.89 in 8.0 mi SSW 5.8 mph - N/A   Mostly Cloudy
9:50 PM 66.2 °F 66.2 °F 100% 29.92 in 8.0 mi South 5.8 mph - N/A   Mostly Cloudy
10:15 PM 64.4 °F 64.4 °F 100% 29.92 in 10.0 mi South 3.5 mph - N/A   Overcast
10:35 PM 64.4 °F 64.4 °F 100% 29.93 in 10.0 mi Calm Calm - N/A   Mostly Cloudy
10:55 PM 64.4 °F 64.4 °F 100% 29.93 in 8.0 mi Calm Calm - N/A   Scattered Clouds
11:15 PM 64.4 °F 64.4 °F 100% 29.93 in 10.0 mi Calm Calm - N/A   Mostly Cloudy
11:35 PM 64.4 °F 64.4 °F 100% 29.93 in 4.0 mi Calm Calm - N/A   Mostly Cloudy
11:55 PM 64.4 °F 64.4 °F 100% 29.94 in 2.0 mi Calm Calm - N/A   Clear